Location: Asheville, NC
(35.6000°N, 82.5500°W)
Time: 03:09:15
(UTC-05:00)

Iridium 28 - Pass Details

Date: 06 January 2018
Orbit: 772 x 774 km, 86.4° (Epoch: 21 January)

Event Time Altitude Azimuth Distance (km) Brightness Sun altitude
Rises 19:45:26 0° 336° (NNW) 3,249 8.9 -26.4°
Reaches altitude 10° 19:48:41 10° 315° (NW) 2,317 8.4 -27.1°
Maximum altitude 19:51:39 16° 280° (W) 1,955 8.4 -27.7°
Drops below altitude 10° 19:54:36 10° 245° (WSW) 2,309 8.9 -28.3°
Sets 19:57:51 0° 223° (SW) 3,231 9.5 -28.9°
